Regional Weather Roundup
Issued by NWS Sterling, VA

Home | Current Version | Previous Version | Graphics & Text | Print | Product List | Glossary On
Versions: 1 2 3 4 5 6 7 8 9 10 11 12 13 14 15 16 17 18 19 20 21 22 23 24 25 26 27
000
ASUS41 KLWX 211810
RWRLWX

REGIONAL WEATHER ROUNDUP
NATIONAL WEATHER SERVICE BALTIMORE MD/WASHINGTON DC
100 PM EST TUE FEB 21 2017

Note: "FAIR" indicates few or no clouds below 12,000 feet
with no significant weather and/or obstructions to visibility.
 TC=TEMPERATURE CELSIUS

 * =Non NWS site. Station does not report precipitation (e.g. rain,
    snow, etc.), thunder, or fog.

DCZ001-MDZ009-015-VAZ040>042-051-053>054-211900-
WASHINGTON METRO

CITY           SKY/WX    TMP DP  RH WIND       PRES   REMARKS
WASHINGTON NAT CLOUDY    55  29  36 S10       30.26F
DULLES         CLOUDY    53  27  36 S10       30.23F
ANDREWS AFB    CLOUDY    54  29  38 S9        30.24F
FT BELVOIR     MOSUNNY   55  27  33 SE12G18   30.25F
QUANTICO       PTSUNNY   52  34  50 SW5       30.27F
COLLEGE PARK*  MOSUNNY   52  28  40 S6        30.25F
LEESBURG*      MOSUNNY   54  32  43 MISG      30.24F
MANASSAS*      MOSUNNY   55  30  38 S9        30.24F
GAITHERSBURG*  CLOUDY    54  27  35 S9        30.28F

$$

MDZ006>007-011-014-211900-
BALTIMORE METRO

CITY           SKY/WX    TMP DP  RH WIND       PRES   REMARKS
BWI AIRPORT    CLOUDY    51  28  41 SE8G16    30.26F
MD SCIENCE CTR   N/A     49  29  46 MISG      30.28F
MARTIN STATE   PTSUNNY   46  34  61 SE5       30.31F
ANNAPOLIS      PTSUNNY   46  35  65 SE9       30.27F
FORT MEADE*    MOSUNNY   52  27  37 SW8       30.27F

$$

MDZ012-015-019>023-211900-
MARYLAND EASTERN SHORE

CITY           SKY/WX    TMP DP  RH WIND       PRES   REMARKS
OCEAN CITY     MOSUNNY   50  37  61 SE7       30.31F
SALISBURY      SUNNY     54  34  46 VRB3G18   30.28F
BAY BRIDGE AP* CLOUDY    45  34  65 NW5       30.27F
EASTON*        CLOUDY    54  30  40 S7        30.31F

$$

MDZ017>025-211900-
SOUTHERN MARYLAND

CITY           SKY/WX    TMP DP  RH WIND       PRES   REMARKS
PATUXENT RIVER CLOUDY    49  38  65 SE8       30.28F
ST INIGOES     CLOUDY    50  37  61 SE6       30.28F
LEONARDTOWN*   PTSUNNY   54  32  43 SE6       30.28F

$$

MDZ003>005-211900-
NORTH CENTRAL MARYLAND

CITY           SKY/WX    TMP DP  RH WIND       PRES   REMARKS
FREDERICK*     SUNNY     54  30  40 SW8       30.27F
HAGERSTOWN APT MOSUNNY   51  31  46 S14       30.20F
WESTMINSTER*   MOSUNNY   54  28  37 S8G16     30.22F

$$

MDZ501>502-211900-
WESTERN MARYLAND

CITY           SKY/WX    TMP DP  RH WIND       PRES   REMARKS
OAKLAND*       MOSUNNY   54  32  43 SE10      30.09F
CUMBERLAND*    CLOUDY    59  30  33 S6        30.18F

$$

VAZ025>031-211900-
SHENANDOAH VALLEY

CITY           SKY/WX    TMP DP  RH WIND       PRES   REMARKS
WINCHESTER*    CLOUDY    52  32  46 S10       30.18F
FRONT ROYAL*   PTSUNNY   55  32  41 S9        30.17F
LURAY*         MOSUNNY   59  36  41 S8G17     30.17F
NEW MARKET*    MOSUNNY   56  32  39 SW13G21   30.17F
STAUNTON*      MOSUNNY   54  32  43 S10       30.20F
WAYNESBORO*    MOSUNNY   54  30  39 S7        30.20F

$$

WVZ021-048>050-054>055-211900-
EASTERN WEST VIRGINIA PANHANDLE

CITY           SKY/WX    TMP DP  RH WIND       PRES   REMARKS
MARTINSBURG    MOSUNNY   53  32  44 S8G18     30.19F
PETERSBURG*    MOSUNNY   65  39  39 S9        30.11F

$$

VAZ036>039-050-211900-
CENTRAL FOOTHILLS

CITY           SKY/WX    TMP DP  RH WIND       PRES   REMARKS
CHARLOTTESVILL MOSUNNY   57  33  40 S7G20     30.22F
CULPEPER*      PTSUNNY   57  33  39 S8        30.23F
ORANGE*        PTSUNNY   55  32  41 S3        30.23F
GORDONSVILLE*  MOSUNNY   58  33  39 S7        30.22F
WARRENTON*     PTSUNNY   58  25  28 S12       30.23F

$$

VAZ055>057-211900-
NORTH AND CENTRAL PIEDMONT

CITY           SKY/WX    TMP DP  RH WIND       PRES   REMARKS
FREDERICKSBRG* CLOUDY    57  34  41 SE7G16    30.24F
STAFFORD*      CLOUDY    55  31  41 SE5       30.28F

$$

NCZ024-NYZ072-PAZ021-071-VAZ022-071-211900-
OTHER REGIONAL OBSERVATIONS

CITY           SKY/WX    TMP DP  RH WIND       PRES   REMARKS
NEW YORK CITY  PTSUNNY   46  27  47 VRB3      30.32F
PHILADELPHIA   CLOUDY    49  29  46 SW9       30.29F
PITTSBURGH     CLOUDY    64  39  39 SW12      30.02F
ROANOKE        CLOUDY    57  35  43 S8        30.20F
RICHMOND       CLOUDY    56  36  47 S5        30.24F
RALEIGH        CLOUDY    62  33  33 E8        30.21F

$$

ANZ530>537-211900-
MARINE OBSERVATIONS

STATION/POSITION TIME  TEMP    WIND        PRES
                       AIR SEA DIR/SP/G
                 (UTC) (F)     (DEG/KT/KT) (MB)
THOMAS PT LIGHT  1800   42 42  180/  3/  3   N/A
BALT KEY BRIDGE  1748   44     110/ 11/ 12 1025.1F
LEWISETTA        1748   44 47  110/  9/  9 1025.2F
SOLOMONS ISLAND  1748   44 44   90/  7/  9   N/A
PINEY POINT      1748          140/  6/  7   N/A

$$





USA.gov is the U.S. government's official web portal to all federal, state and local government web resources and services.